Weather History for Ft Lauderdale, FL

Change the Weather History Date:

Tuesday, March 26, 2013

  Actual Average Record
Temperature  
Mean Temperature 61 °F 74 °F  
Max Temperature 70 °F 81 °F 90 °F (1935)
Min Temperature 51 °F 67 °F 45 °F (1947)
Degree Days  
Heating Degree Days 4 0  
Month to date heating degree days 34 7  
Since 1 July heating degree days 77 109  
Cooling Degree Days 0 9  
Month to date cooling degree days 115 209  
Year to date cooling degree days 572 565  
Growing Degree Days 12 (Base 50)    
Moisture  
Dew Point 34 °F    
Average Humidity 40    
Maximum Humidity 57    
Minimum Humidity 22    
Precipitation  
Precipitation 0.00 in 0.11 in 2.14 in (1958)
Month to date precipitation 0.09 2.74  
Year to date precipitation 3.21 9.33  
Snow  
Snow 0.00 in - - ()
Month to date snowfall 0.0  
Since 1 July snowfall 0.0  
Snow Depth 0.00 in    
Sea Level Pressure  
Sea Level Pressure 30.09 in    
Wind  
Wind Speed 15 mph (NNW)    
Max Wind Speed 23 mph    
Max Gust Speed 30 mph    
Visibility 10 miles    
Events      
T = Trace of Precipitation, MM = Missing Value Source: NWS Daily Summary

Daily Weather History Graph

Daily Weather History Graph

Search for Another Location

Airport:

Trip Planner

Search our weather history database for the weather conditions in past years. The results will help you decide how hot, cold, wet, or windy it might be!

Date:

Astronomy

Mar. 26, 2013 Rise Set
Actual Time 7:17 AM EDT 7:34 PM EDT
Civil Twilight 6:54 AM EDT 7:57 PM EDT
Nautical Twilight 6:27 AM EDT 8:24 PM EDT
Astronomical Twilight 6:00 AM EDT 8:52 PM EDT
Moon 7:08 PM EDT (3/26) 6:31 AM EDT (3/26)
Length of Visible Light 13h 03m
Length of Day
12h 16m
Waxing Gibbous, 99% of the Moon is Illuminated
Mar 26
Waxing Gibbous
Mar 27
Full
Apr 3
Last Quarter
Apr 10
New
Apr 18
First Quarter

Hourly Weather History & Observations

Time (EDT) Temp. Dew Point Humidity Pressure Visibility Wind Dir Wind Speed Gust Speed Precip Events Conditions
12:53 AM 64.9 °F 34.0 °F 32% 30.00 in 10.0 mi NW 9.2 mph 20.7 mph N/A   Mostly Cloudy
1:53 AM 63.0 °F 35.1 °F 35% 30.01 in 10.0 mi NW 10.4 mph - N/A   Mostly Cloudy
2:53 AM 60.1 °F 39.9 °F 47% 30.01 in 10.0 mi NW 9.2 mph 20.7 mph N/A   Partly Cloudy
3:53 AM 57.9 °F 42.1 °F 56% 30.01 in 10.0 mi NW 13.8 mph 25.3 mph N/A   Mostly Cloudy
4:53 AM 59.0 °F 43.0 °F 55% 30.01 in 10.0 mi NNW 10.4 mph - N/A   Mostly Cloudy
5:53 AM 59.0 °F 39.0 °F 48% 30.03 in 10.0 mi NNW 18.4 mph 23.0 mph N/A   Overcast
6:53 AM 59.0 °F 39.9 °F 49% 30.05 in 10.0 mi North 17.3 mph 26.5 mph N/A   Mostly Cloudy
7:53 AM 57.9 °F 35.1 °F 42% 30.07 in 10.0 mi North 20.7 mph - N/A   Mostly Cloudy
8:53 AM 59.0 °F 34.0 °F 39% 30.09 in 10.0 mi NNW 18.4 mph - N/A   Mostly Cloudy
9:53 AM 62.1 °F 30.9 °F 31% 30.11 in 10.0 mi North 18.4 mph 24.2 mph N/A   Mostly Cloudy
10:53 AM 64.0 °F 30.9 °F 29% 30.11 in 10.0 mi North 16.1 mph - N/A   Partly Cloudy
11:53 AM 66.9 °F 34.0 °F 30% 30.12 in 10.0 mi NNW 10.4 mph 20.7 mph N/A   Partly Cloudy
12:53 PM 68.0 °F 35.1 °F 30% 30.12 in 10.0 mi NNW 16.1 mph 21.9 mph N/A   Partly Cloudy
1:53 PM 69.1 °F 28.0 °F 22% 30.09 in 10.0 mi NNW 13.8 mph 25.3 mph N/A   Clear
2:53 PM 69.1 °F 30.9 °F 24% 30.09 in 10.0 mi NW 13.8 mph 23.0 mph N/A   Clear
3:53 PM 69.1 °F 30.9 °F 24% 30.08 in 10.0 mi NNW 23.0 mph 28.8 mph N/A   Clear
4:53 PM 68.0 °F 34.0 °F 28% 30.08 in 10.0 mi NW 17.3 mph 24.2 mph N/A   Clear
5:53 PM 66.9 °F 34.0 °F 30% 30.09 in 10.0 mi NW 15.0 mph 21.9 mph N/A   Clear
6:53 PM 66.0 °F 35.1 °F 32% 30.10 in 10.0 mi NW 13.8 mph 23.0 mph N/A   Clear
7:53 PM 63.0 °F 33.1 °F 33% 30.13 in 10.0 mi NW 15.0 mph 23.0 mph N/A   Clear
8:53 PM 60.1 °F 30.9 °F 33% 30.16 in 10.0 mi NNW 17.3 mph - N/A   Clear
9:53 PM 57.9 °F 28.0 °F 32% 30.19 in 10.0 mi NW 16.1 mph 20.7 mph N/A   Clear
10:53 PM 55.0 °F 30.9 °F 40% 30.21 in 10.0 mi NW 10.4 mph - N/A   Clear
11:53 PM 53.1 °F 32.0 °F 45% 30.22 in 10.0 mi NW 11.5 mph 19.6 mph N/A   Clear